When you browse on this site, cookies collect data to enhance your experience and personalize the content and advertising you see.
Visit our Privacy Policy to learn more. By continuing to use the site, you agree to this use of cookies and data.
  • In France
  • List of Countries
  • For 7 days
  • Water Temperature
  • Weather Map
  • Weather Widgets
  • user-avatar
    Login

    Hourly Weather Dikhil

    Today, 26 May, Tuesday

    Time Temperature Precipitation Wind Pressure Humidity
    00:00 +34°C° 0 mm 7 mps 715 mmHg 41%
    01:00 +33°C° 0 mm 6 mps 715 mmHg 47%
    02:00 +32°C° 0 mm 5 mps 715 mmHg 52%
    03:00 +32°C° 0 mm 4 mps 714 mmHg 56%
    04:00 +31°C° 0 mm 3 mps 715 mmHg 58%
    05:00 +30°C° 0 mm 3 mps 715 mmHg 60%
    06:00 +30°C° 0 mm 2 mps 715 mmHg 62%
    07:00 +32°C° 0 mm 1 mps 715 mmHg 55%
    08:00 +33°C° 0 mm 1 mps 716 mmHg 47%
    09:00 +34°C° 0 mm 1 mps 716 mmHg 39%
    10:00 +36°C° 0 mm 1 mps 716 mmHg 34%
    11:00 +38°C° 0 mm 2 mps 716 mmHg 30%
    12:00 +40°C° 0 mm 3 mps 716 mmHg 25%
    13:00 +42°C° 0 mm 3 mps 715 mmHg 22%
    14:00 +43°C° 0 mm 3 mps 715 mmHg 20%
    15:00 +43°C° 0 mm 4 mps 714 mmHg 17%
    16:00 +42°C° 0 mm 5 mps 714 mmHg 21%
    17:00 +41°C° 0 mm 5 mps 714 mmHg 25%
    18:00 +40°C° 0 mm 6 mps 714 mmHg 29%
    19:00 +39°C° 0 mm 6 mps 714 mmHg 35%
    20:00 +38°C° 0 mm 6 mps 715 mmHg 40%
    21:00 +36°C° 0 mm 6 mps 715 mmHg 46%
    22:00 +35°C° 0 mm 6 mps 715 mmHg 48%
    23:00 +34°C° 0 mm 5 mps 715 mmHg 49%

    Tomorrow, 27 May, Wednesday

    Time Temperature Precipitation Wind Pressure Humidity
    00:00 +34°C° 0 mm 5 mps 715 mmHg 51%
    01:00 +33°C° 0 mm 4 mps 715 mmHg 52%
    02:00 +33°C° 0 mm 3 mps 714 mmHg 52%
    03:00 +32°C° 0 mm 2 mps 714 mmHg 53%
    04:00 +32°C° 0 mm 2 mps 715 mmHg 53%
    05:00 +31°C° 0 mm 2 mps 715 mmHg 53%
    06:00 +31°C° 0 mm 2 mps 715 mmHg 53%
    07:00 +32°C° 0 mm 2 mps 716 mmHg 49%
    08:00 +34°C° 0 mm 2 mps 716 mmHg 45%
    09:00 +36°C° 0 mm 2 mps 717 mmHg 40%
    10:00 +37°C° 0 mm 2 mps 717 mmHg 35%
    11:00 +38°C° 0 mm 2 mps 716 mmHg 31%
    12:00 +40°C° 0 mm 2 mps 716 mmHg 26%
    13:00 +42°C° 0 mm 3 mps 715 mmHg 24%
    14:00 +42°C° 0 mm 3 mps 715 mmHg 22%
    15:00 +43°C° 0 mm 4 mps 714 mmHg 20%
    16:00 +41°C° 0.3 mm 5 mps 714 mmHg 23%
    17:00 +40°C° 0.3 mm 6 mps 714 mmHg 27%
    18:00 +38°C° 0.3 mm 7 mps 714 mmHg 30%
    19:00 +38°C° 0 mm 7 mps 715 mmHg 34%
    20:00 +38°C° 0 mm 6 mps 715 mmHg 37%
    21:00 +36°C° 0 mm 5 mps 716 mmHg 40%
    22:00 +36°C° 0.1 mm 5 mps 716 mmHg 44%
    23:00 +35°C° 0.1 mm 5 mps 715 mmHg 47%

    Day after tomorrow, 28 May, Thursday

    Time Temperature Precipitation Wind Pressure Humidity
    00:00 +34°C° 0.1 mm 4 mps 715 mmHg 51%
    01:00 +34°C° 0 mm 3 mps 715 mmHg 51%
    02:00 +34°C° 0 mm 3 mps 715 mmHg 51%
    03:00 +34°C° 0 mm 2 mps 714 mmHg 52%
    04:00 +32°C° 0 mm 1 mps 714 mmHg 52%
    05:00 +32°C° 0 mm 1 mps 715 mmHg 52%
    06:00 +32°C° 0 mm 1 mps 715 mmHg 52%
    07:00 +31°C° 0 mm 0 mps 716 mmHg 48%
    08:00 +32°C° 0 mm 0 mps 716 mmHg 43%
    09:00 +33°C° 0 mm 0 mps 717 mmHg 38%
    10:00 +37°C° 0 mm 1 mps 716 mmHg 34%
    11:00 +39°C° 0 mm 1 mps 716 mmHg 30%
    12:00 +40°C° 0 mm 2 mps 715 mmHg 26%
    13:00 +41°C° 0 mm 2 mps 715 mmHg 24%
    14:00 +43°C° 0 mm 3 mps 714 mmHg 21%
    15:00 +43°C° 0 mm 3 mps 714 mmHg 19%
    16:00 +42°C° 0.1 mm 3 mps 714 mmHg 21%
    17:00 +40°C° 0.1 mm 3 mps 714 mmHg 23%
    18:00 +39°C° 0.1 mm 3 mps 714 mmHg 24%
    19:00 +38°C° 0.2 mm 4 mps 714 mmHg 30%
    20:00 +37°C° 0.2 mm 4 mps 715 mmHg 36%
    21:00 +36°C° 0.2 mm 5 mps 715 mmHg 41%
    22:00 +36°C° 0 mm 4 mps 715 mmHg 41%
    23:00 +35°C° 0 mm 3 mps 715 mmHg 41%

    29 May, Friday

    Time Temperature Precipitation Wind Pressure Humidity
    00:00 +35°C° 0 mm 2 mps 714 mmHg 42%
    01:00 +34°C° 0 mm 2 mps 714 mmHg 44%
    02:00 +34°C° 0 mm 2 mps 714 mmHg 47%
    03:00 +34°C° 0 mm 2 mps 714 mmHg 50%
    04:00 +34°C° 0 mm 2 mps 714 mmHg 50%
    05:00 +32°C° 0 mm 1 mps 714 mmHg 50%
    06:00 +32°C° 0 mm 1 mps 714 mmHg 50%
    07:00 +33°C° 0 mm 1 mps 715 mmHg 46%
    08:00 +34°C° 0 mm 1 mps 716 mmHg 42%
    09:00 +35°C° 0 mm 1 mps 716 mmHg 38%
    10:00 +37°C° 0 mm 1 mps 716 mmHg 34%
    11:00 +39°C° 0 mm 2 mps 715 mmHg 29%
    12:00 +40°C° 0 mm 2 mps 715 mmHg 24%
    13:00 +42°C° 0 mm 3 mps 714 mmHg 22%
    14:00 +43°C° 0 mm 3 mps 713 mmHg 19%
    15:00 +44°C° 0 mm 4 mps 713 mmHg 17%
    16:00 +43°C° 0 mm 4 mps 713 mmHg 18%
    17:00 +42°C° 0 mm 5 mps 713 mmHg 20%
    18:00 +42°C° 0 mm 5 mps 712 mmHg 21%
    19:00 +41°C° 0 mm 5 mps 713 mmHg 22%
    20:00 +41°C° 0 mm 4 mps 713 mmHg 23%
    21:00 +39°C° 0 mm 3 mps 714 mmHg 24%
    22:00 +38°C° 0 mm 3 mps 714 mmHg 30%
    23:00 +37°C° 0 mm 4 mps 714 mmHg 36%

    30 May, Saturday

    Time Temperature Precipitation Wind Pressure Humidity
    00:00 +36°C° 0 mm 4 mps 714 mmHg 42%
    01:00 +36°C° 0 mm 3 mps 713 mmHg 43%
    02:00 +35°C° 0 mm 3 mps 713 mmHg 44%
    03:00 +35°C° 0 mm 2 mps 713 mmHg 45%
    04:00 +33°C° 0 mm 1 mps 713 mmHg 45%
    05:00 +33°C° 0 mm 1 mps 713 mmHg 46%
    06:00 +33°C° 0 mm 1 mps 714 mmHg 46%
    07:00 +34°C° 0 mm 1 mps 714 mmHg 41%
    08:00 +36°C° 0 mm 2 mps 714 mmHg 36%
    09:00 +38°C° 0 mm 2 mps 715 mmHg 31%
    10:00 +39°C° 0 mm 3 mps 715 mmHg 26%
    11:00 +42°C° 0 mm 3 mps 714 mmHg 21%
    12:00 +43°C° 0 mm 4 mps 714 mmHg 17%
    13:00 +44°C° 0 mm 4 mps 714 mmHg 15%
    14:00 +44°C° 0 mm 4 mps 713 mmHg 14%
    15:00 +45°C° 0 mm 4 mps 713 mmHg 12%
    16:00 +46°C° 0 mm 5 mps 713 mmHg 12%
    17:00 +45°C° 0 mm 5 mps 713 mmHg 12%
    18:00 +45°C° 0 mm 5 mps 713 mmHg 13%
    19:00 +43°C° 0 mm 4 mps 713 mmHg 18%
    20:00 +41°C° 0 mm 4 mps 714 mmHg 24%
    21:00 +40°C° 0 mm 4 mps 714 mmHg 29%
    22:00 +38°C° 0 mm 3 mps 714 mmHg 32%
    23:00 +37°C° 0 mm 3 mps 714 mmHg 35%

    31 May, Sunday

    Time Temperature Precipitation Wind Pressure Humidity
    00:00 +36°C° 0 mm 2 mps 714 mmHg 37%
    01:00 +36°C° 0 mm 2 mps 714 mmHg 38%
    02:00 +34°C° 0 mm 1 mps 713 mmHg 38%
    03:00 +34°C° 0 mm 1 mps 713 mmHg 39%
    04:00 +33°C° 0 mm 1 mps 714 mmHg 40%
    05:00 +33°C° 0 mm 1 mps 714 mmHg 40%
    06:00 +32°C° 0 mm 1 mps 714 mmHg 41%
    07:00 +35°C° 0 mm 2 mps 715 mmHg 37%
    08:00 +36°C° 0 mm 3 mps 715 mmHg 33%
    09:00 +38°C° 0 mm 4 mps 716 mmHg 29%
    10:00 +40°C° 0 mm 4 mps 715 mmHg 25%
    11:00 +41°C° 0 mm 4 mps 715 mmHg 22%
    12:00 +43°C° 0 mm 5 mps 715 mmHg 18%
    13:00 +43°C° 0 mm 5 mps 715 mmHg 16%
    14:00 +45°C° 0 mm 5 mps 714 mmHg 15%
    15:00 +45°C° 0 mm 4 mps 713 mmHg 13%
    16:00 +44°C° 0 mm 4 mps 713 mmHg 14%
    17:00 +44°C° 0 mm 4 mps 713 mmHg 14%
    18:00 +43°C° 0 mm 4 mps 713 mmHg 15%
    19:00 +42°C° 0 mm 4 mps 714 mmHg 21%
    20:00 +40°C° 0 mm 4 mps 714 mmHg 27%
    21:00 +38°C° 0 mm 4 mps 714 mmHg 33%
    22:00 +37°C° 0 mm 4 mps 714 mmHg 39%
    23:00 +36°C° 0 mm 5 mps 714 mmHg 44%
    Show more